AMX919 MMMY-KSAN

Flight info

Callsign AMX919
Flight time 2h 41m
Altitude 36000
Route MTY1A MTY DCT MIDRA UT11 PPE UJ3 TANRI DCT TIJ
Aircraft B738/M-SDE2E3FGHIRWXY/LB1

Departure

Time 2026-05-07 04:43
Airport Monterrey International Airport (MMMY)

Arrival

Time 2026-05-07 07:25
Airport San Diego International Airport (KSAN)
Time Latitude Longitude Altitude Speed Heading
2026-05-07 04:24 25.77901 -100.11322 1278 ft 0 kts 224°
2026-05-07 04:29 25.77905 -100.11319 1278 ft 1 kts 248°
2026-05-07 04:29 25.77903 -100.11328 1278 ft 4 kts 243°
2026-05-07 04:29 25.77896 -100.11335 1276 ft 0 kts 227°
2026-05-07 04:37 25.77897 -100.11335 1276 ft 1 kts 230°
2026-05-07 04:37 25.77900 -100.11332 1276 ft 0 kts 271°
2026-05-07 04:38 25.77902 -100.11330 1277 ft 0 kts 294°
2026-05-07 04:38 25.77957 -100.11346 1277 ft 24 kts 331°
2026-05-07 04:38 25.78056 -100.11468 1279 ft 17 kts 301°
2026-05-07 04:39 25.78109 -100.11564 1281 ft 13 kts 301°
2026-05-07 04:39 25.78148 -100.11634 1282 ft 9 kts 302°
2026-05-07 04:39 25.78175 -100.11683 1283 ft 6 kts 302°
2026-05-07 04:39 25.78190 -100.11710 1284 ft 5 kts 302°
2026-05-07 04:40 25.78241 -100.11784 1285 ft 11 kts 331°
2026-05-07 04:40 25.78321 -100.11771 1287 ft 12 kts 24°
2026-05-07 04:40 25.78345 -100.11756 1289 ft 0 kts 27°
2026-05-07 04:42 25.78369 -100.11740 1286 ft 11 kts 33°
2026-05-07 04:42 25.78390 -100.11684 1290 ft 5 kts 100°
2026-05-07 04:42 25.78387 -100.11673 1287 ft 14 kts 110°
2026-05-07 04:43 25.78195 -100.11300 1278 ft 97 kts 120°
2026-05-07 04:43 25.77709 -100.10395 1267 ft 175 kts 121°
2026-05-07 04:43 25.76976 -100.09058 1700 ft 225 kts 119°
2026-05-07 04:43 25.76169 -100.07433 2613 ft 241 kts 117°
2026-05-07 04:44 25.75373 -100.05821 4047 ft 243 kts 117°
2026-05-07 04:44 25.74547 -100.04167 5358 ft 248 kts 118°
2026-05-07 04:44 25.73699 -100.02462 6553 ft 257 kts 119°
2026-05-07 04:44 25.72823 -100.00702 7716 ft 263 kts 120°
2026-05-07 04:45 25.71931 -99.98910 8922 ft 268 kts 120°
2026-05-07 04:45 25.71018 -99.97066 9894 ft 280 kts 121°
2026-05-07 04:45 25.70054 -99.95132 10595 ft 297 kts 121°
2026-05-07 04:45 25.69020 -99.93068 11267 ft 314 kts 121°
2026-05-07 04:46 25.67945 -99.90920 11995 ft 329 kts 121°
2026-05-07 04:46 25.66809 -99.88656 12734 ft 344 kts 122°
2026-05-07 04:46 25.65642 -99.86336 13732 ft 350 kts 122°
2026-05-07 04:46 25.64413 -99.83941 14323 ft 363 kts 126°
2026-05-07 04:47 25.62583 -99.82005 14905 ft 368 kts 154°
2026-05-07 04:47 25.60145 -99.81263 15722 ft 366 kts 181°
2026-05-07 04:47 25.57675 -99.81828 16620 ft 365 kts 207°
2026-05-07 04:47 25.55708 -99.83569 17541 ft 367 kts 232°
2026-05-07 04:48 25.54660 -99.86103 18423 ft 373 kts 257°
2026-05-07 04:48 25.54741 -99.88986 19218 ft 384 kts 281°
2026-05-07 04:48 25.55799 -99.91750 19961 ft 394 kts 292°
2026-05-07 04:48 25.57073 -99.94460 20699 ft 399 kts 294°
2026-05-07 04:49 25.58432 -99.97164 21429 ft 405 kts 294°
2026-05-07 04:49 25.59851 -99.99885 22181 ft 409 kts 295°
2026-05-07 04:49 25.61309 -100.02613 22894 ft 414 kts 295°
2026-05-07 04:49 25.62809 -100.05360 23582 ft 419 kts 295°
2026-05-07 04:50 25.64339 -100.08131 24174 ft 422 kts 295°
2026-05-07 04:50 25.65887 -100.10911 24775 ft 425 kts 295°
2026-05-07 04:50 25.67446 -100.13704 25375 ft 427 kts 295°
2026-05-07 04:50 25.69021 -100.16513 25961 ft 430 kts 295°
2026-05-07 04:51 25.70607 -100.19338 26542 ft 433 kts 296°
2026-05-07 04:51 25.72193 -100.22153 27100 ft 436 kts 295°
2026-05-07 04:51 25.73810 -100.25026 27660 ft 439 kts 296°
2026-05-07 04:51 25.75433 -100.27909 28198 ft 442 kts 295°
2026-05-07 04:52 25.77071 -100.30813 28725 ft 445 kts 296°
2026-05-07 04:52 25.78719 -100.33736 29232 ft 449 kts 295°
2026-05-07 04:52 25.80378 -100.36672 29878 ft 448 kts 296°
2026-05-07 04:52 25.82035 -100.39598 30475 ft 446 kts 296°
2026-05-07 04:53 25.83665 -100.42476 31066 ft 445 kts 296°
2026-05-07 04:53 25.85306 -100.45381 31676 ft 443 kts 296°
2026-05-07 04:53 25.86937 -100.48281 32276 ft 441 kts 296°
2026-05-07 04:53 25.88551 -100.51166 32844 ft 440 kts 296°
2026-05-07 04:54 25.90162 -100.54046 33426 ft 438 kts 296°
2026-05-07 04:54 25.91766 -100.56918 34003 ft 436 kts 296°
2026-05-07 04:54 25.93362 -100.59785 34485 ft 435 kts 296°
2026-05-07 04:54 25.94955 -100.62646 34965 ft 433 kts 296°
2026-05-07 04:55 25.96540 -100.65483 35433 ft 430 kts 296°
2026-05-07 04:55 25.98109 -100.68274 35682 ft 423 kts 296°
2026-05-07 04:55 25.99657 -100.71016 35816 ft 425 kts 296°
2026-05-07 04:55 26.01240 -100.73819 35886 ft 430 kts 296°
2026-05-07 04:56 26.04440 -100.79477 35945 ft 432 kts 296°
2026-05-07 04:56 26.07631 -100.85095 35927 ft 427 kts 296°
2026-05-07 04:57 26.10814 -100.90667 35946 ft 427 kts 296°
2026-05-07 04:57 26.14016 -100.96259 35940 ft 429 kts 296°
2026-05-07 04:58 26.17220 -101.01848 35925 ft 427 kts 296°
2026-05-07 04:58 26.20408 -101.07379 35967 ft 428 kts 296°
2026-05-07 04:59 26.23640 -101.12977 35974 ft 429 kts 296°
2026-05-07 04:59 26.26873 -101.18547 35965 ft 426 kts 296°
2026-05-07 05:00 26.30132 -101.24092 36006 ft 430 kts 296°
2026-05-07 05:00 26.33430 -101.29668 36007 ft 430 kts 296°
2026-05-07 05:01 26.36712 -101.35207 35995 ft 426 kts 296°
2026-05-07 05:01 26.39968 -101.40679 36006 ft 426 kts 296°
2026-05-07 05:02 26.43256 -101.46194 36013 ft 427 kts 296°
2026-05-07 05:02 26.46540 -101.51705 36000 ft 425 kts 296°
2026-05-07 05:03 26.49808 -101.57181 36030 ft 424 kts 296°
2026-05-07 05:03 26.53101 -101.62677 36044 ft 426 kts 296°
2026-05-07 05:04 26.56405 -101.68166 36005 ft 423 kts 296°
2026-05-07 05:04 26.59682 -101.73559 36020 ft 422 kts 296°
2026-05-07 05:05 26.62997 -101.79005 36017 ft 425 kts 296°
2026-05-07 05:05 26.66324 -101.84456 36004 ft 423 kts 296°
2026-05-07 05:06 26.69648 -101.89876 35999 ft 422 kts 296°
2026-05-07 05:06 26.72980 -101.95290 35996 ft 423 kts 296°
2026-05-07 05:07 26.76310 -102.00690 35997 ft 422 kts 296°
2026-05-07 05:07 26.79653 -102.06096 35979 ft 421 kts 296°
2026-05-07 05:08 26.82986 -102.11467 35999 ft 420 kts 296°
2026-05-07 05:08 26.86342 -102.16857 36020 ft 423 kts 296°
2026-05-07 05:09 26.89156 -102.21359 36014 ft 421 kts 296°
2026-05-07 05:09 26.92500 -102.26679 36018 ft 420 kts 296°
2026-05-07 05:10 26.95878 -102.32035 36033 ft 421 kts 296°
2026-05-07 05:10 26.98719 -102.36528 36033 ft 421 kts 296°
2026-05-07 05:11 27.02095 -102.41836 36020 ft 419 kts 296°
2026-05-07 05:11 27.05490 -102.47153 35993 ft 416 kts 296°
2026-05-07 05:12 27.08878 -102.52427 36067 ft 421 kts 296°
2026-05-07 05:12 27.12312 -102.57762 36003 ft 419 kts 296°
2026-05-07 05:13 27.15715 -102.63032 35874 ft 416 kts 297°
2026-05-07 05:13 27.19125 -102.68273 35984 ft 420 kts 296°
2026-05-07 05:14 27.22575 -102.73599 36008 ft 420 kts 296°
2026-05-07 05:14 27.26017 -102.78859 36002 ft 416 kts 296°
2026-05-07 05:15 27.29465 -102.84096 36005 ft 417 kts 296°
2026-05-07 05:15 27.32910 -102.89318 35998 ft 418 kts 296°
2026-05-07 05:16 27.36381 -102.94554 35986 ft 416 kts 296°
2026-05-07 05:16 27.39849 -102.99761 35986 ft 416 kts 297°
2026-05-07 05:17 27.43329 -103.04979 35980 ft 417 kts 297°
2026-05-07 05:17 27.46814 -103.10197 35970 ft 417 kts 297°
2026-05-07 05:18 27.50302 -103.15403 35981 ft 416 kts 297°
2026-05-07 05:18 27.53750 -103.20622 36166 ft 412 kts 294°
2026-05-07 05:19 27.55340 -103.23253 36398 ft 411 kts 294°
2026-05-07 05:19 27.56926 -103.25957 36577 ft 414 kts 293°
2026-05-07 05:19 27.58509 -103.28687 36749 ft 418 kts 293°
2026-05-07 05:19 27.60096 -103.31448 36877 ft 421 kts 293°
2026-05-07 05:20 27.63285 -103.37001 36947 ft 420 kts 292°
2026-05-07 05:20 27.66457 -103.42505 36967 ft 418 kts 293°
2026-05-07 05:21 27.71237 -103.50761 36980 ft 420 kts 293°
2026-05-07 05:22 27.74441 -103.56283 36983 ft 420 kts 293°
2026-05-07 05:22 27.77621 -103.61751 36994 ft 419 kts 293°
2026-05-07 05:23 27.79655 -103.65236 37006 ft 420 kts 293°
2026-05-07 05:23 27.82882 -103.70751 37000 ft 421 kts 293°
2026-05-07 05:24 27.86117 -103.76258 37008 ft 420 kts 293°
2026-05-07 05:24 27.89344 -103.81724 37016 ft 420 kts 293°
2026-05-07 05:25 27.92598 -103.87208 37009 ft 420 kts 293°
2026-05-07 05:25 27.95864 -103.92688 37011 ft 420 kts 293°
2026-05-07 05:26 27.97229 -103.94968 37013 ft 420 kts 293°
2026-05-07 05:26 27.98870 -103.97705 37010 ft 419 kts 293°
2026-05-07 05:27 28.00958 -104.01178 37097 ft 417 kts 293°
2026-05-07 05:27 28.02599 -104.03890 37200 ft 417 kts 293°
2026-05-07 05:27 28.04240 -104.06607 37340 ft 420 kts 293°
2026-05-07 05:27 28.05891 -104.09344 37443 ft 422 kts 293°
2026-05-07 05:28 28.07550 -104.12089 37543 ft 423 kts 293°
2026-05-07 05:28 28.10888 -104.17596 37752 ft 423 kts 293°
2026-05-07 05:29 28.14205 -104.23040 37944 ft 424 kts 293°
2026-05-07 05:29 28.17576 -104.28565 37987 ft 427 kts 293°
2026-05-07 05:30 28.20958 -104.34089 38004 ft 425 kts 293°
2026-05-07 05:30 28.23450 -104.38129 38006 ft 424 kts 293°
2026-05-07 05:31 28.26832 -104.43592 37989 ft 426 kts 293°
2026-05-07 05:31 28.29019 -104.47110 37988 ft 426 kts 293°
2026-05-07 05:32 28.32439 -104.52590 37997 ft 425 kts 293°
2026-05-07 05:32 28.35298 -104.57141 38005 ft 426 kts 293°
2026-05-07 05:33 28.38233 -104.61801 37991 ft 426 kts 293°
2026-05-07 05:33 28.41698 -104.67289 37986 ft 427 kts 293°
2026-05-07 05:34 28.45165 -104.72755 37980 ft 426 kts 293°
2026-05-07 05:34 28.47445 -104.76338 37985 ft 426 kts 293°
2026-05-07 05:35 28.48078 -104.77330 37984 ft 426 kts 293°
2026-05-07 05:35 28.51563 -104.82784 37975 ft 426 kts 293°
2026-05-07 05:36 28.53746 -104.86293 37975 ft 421 kts 290°
2026-05-07 05:36 28.56246 -104.90964 37972 ft 417 kts 288°
2026-05-07 05:38 28.56319 -104.91106 37973 ft 417 kts 288°
2026-05-07 05:39 28.56954 -104.92340 37974 ft 417 kts 288°
2026-05-07 05:39 28.59852 -104.98036 37972 ft 415 kts 288°
2026-05-07 05:40 28.62728 -105.03719 37973 ft 414 kts 288°
2026-05-07 05:40 28.64166 -105.06557 37968 ft 414 kts 288°
2026-05-07 05:41 28.65313 -105.08824 37974 ft 414 kts 288°
2026-05-07 05:41 28.68176 -105.14456 37963 ft 413 kts 288°
2026-05-07 05:42 28.71065 -105.20111 37964 ft 412 kts 288°
2026-05-07 05:42 28.73972 -105.25749 37962 ft 411 kts 288°
2026-05-07 05:43 28.76870 -105.31327 37955 ft 411 kts 288°
2026-05-07 05:43 28.79800 -105.36929 37939 ft 410 kts 288°
2026-05-07 05:44 28.82741 -105.42499 37960 ft 411 kts 288°
2026-05-07 05:44 28.85702 -105.48111 37975 ft 414 kts 288°
2026-05-07 05:45 28.88670 -105.53753 37968 ft 413 kts 288°
2026-05-07 05:45 28.91633 -105.59372 37968 ft 413 kts 288°
2026-05-07 05:46 28.94590 -105.64990 37965 ft 413 kts 288°
2026-05-07 05:46 28.97537 -105.70580 37954 ft 414 kts 288°
2026-05-07 05:47 28.99429 -105.74177 37983 ft 415 kts 288°
2026-05-07 05:47 29.02415 -105.79831 37969 ft 413 kts 288°
2026-05-07 05:48 29.05401 -105.85463 37986 ft 415 kts 288°
2026-05-07 05:48 29.08381 -105.91101 37981 ft 414 kts 288°
2026-05-07 05:49 29.11242 -105.96509 37990 ft 414 kts 288°
2026-05-07 05:49 29.14138 -106.01981 37993 ft 415 kts 288°
2026-05-07 05:50 29.17133 -106.07626 37978 ft 415 kts 288°
2026-05-07 05:50 29.20140 -106.13268 38014 ft 414 kts 288°
2026-05-07 05:51 29.22314 -106.17360 38023 ft 414 kts 288°
2026-05-07 05:51 29.25312 -106.23010 38031 ft 415 kts 288°
2026-05-07 05:52 29.28316 -106.28676 38049 ft 416 kts 288°
2026-05-07 05:52 29.31317 -106.34351 38044 ft 416 kts 288°
2026-05-07 05:53 29.34312 -106.40022 38059 ft 416 kts 288°
2026-05-07 05:53 29.37307 -106.45720 38069 ft 418 kts 288°
2026-05-07 05:54 29.40306 -106.51447 38098 ft 419 kts 288°
2026-05-07 05:54 29.43285 -106.57157 38099 ft 419 kts 288°
2026-05-07 05:55 29.46286 -106.62889 38108 ft 418 kts 288°
2026-05-07 05:55 29.49275 -106.68614 38075 ft 419 kts 288°
2026-05-07 05:56 29.52262 -106.74353 38080 ft 418 kts 288°
2026-05-07 05:56 29.55245 -106.80090 38110 ft 418 kts 288°
2026-05-07 05:57 29.58215 -106.85833 38086 ft 421 kts 288°
2026-05-07 05:57 29.61200 -106.91609 38094 ft 420 kts 288°
2026-05-07 05:58 29.63683 -106.96422 38109 ft 420 kts 288°
2026-05-07 05:58 29.66533 -107.02263 38112 ft 414 kts 284°
2026-05-07 05:59 29.68737 -107.08285 38096 ft 404 kts 279°
2026-05-07 05:59 29.70586 -107.14385 38094 ft 403 kts 278°
2026-05-07 06:00 29.72362 -107.20513 38102 ft 404 kts 277°
2026-05-07 06:00 29.74116 -107.26647 38100 ft 403 kts 277°
2026-05-07 06:01 29.75859 -107.32744 38101 ft 403 kts 277°
2026-05-07 06:01 29.77608 -107.38894 38117 ft 405 kts 277°
2026-05-07 06:02 29.79360 -107.45051 38119 ft 405 kts 277°
2026-05-07 06:02 29.81111 -107.51208 38111 ft 404 kts 277°
2026-05-07 06:03 29.82716 -107.56866 38105 ft 408 kts 278°
2026-05-07 06:03 29.84475 -107.63093 38122 ft 409 kts 277°
2026-05-07 06:04 29.85779 -107.67738 38118 ft 407 kts 277°
2026-05-07 06:04 29.87526 -107.73936 38147 ft 406 kts 277°
2026-05-07 06:05 29.89274 -107.80130 38145 ft 407 kts 278°
2026-05-07 06:05 29.91025 -107.86347 38144 ft 408 kts 278°
2026-05-07 06:06 29.92778 -107.92574 38142 ft 408 kts 278°
2026-05-07 06:06 29.94534 -107.98799 38153 ft 409 kts 278°
2026-05-07 06:07 29.96291 -108.05050 38141 ft 410 kts 278°
2026-05-07 06:07 29.98044 -108.11316 38161 ft 411 kts 277°
2026-05-07 06:08 29.99668 -108.17603 38168 ft 409 kts 276°
2026-05-07 06:08 30.01220 -108.23894 38156 ft 407 kts 276°
2026-05-07 06:09 30.02763 -108.30169 38150 ft 407 kts 276°
2026-05-07 06:09 30.04305 -108.36469 38136 ft 408 kts 276°
2026-05-07 06:10 30.05834 -108.42716 38136 ft 407 kts 276°
2026-05-07 06:10 30.07382 -108.49004 38151 ft 408 kts 276°
2026-05-07 06:11 30.08933 -108.55311 38131 ft 409 kts 276°
2026-05-07 06:11 30.10489 -108.61621 38124 ft 408 kts 276°
2026-05-07 06:12 30.12052 -108.67932 38133 ft 410 kts 276°
2026-05-07 06:12 30.13625 -108.74257 38126 ft 409 kts 276°
2026-05-07 06:13 30.15187 -108.80559 38100 ft 407 kts 276°
2026-05-07 06:13 30.16739 -108.86822 38063 ft 405 kts 276°
2026-05-07 06:14 30.18299 -108.93122 38127 ft 412 kts 276°
2026-05-07 06:14 30.19881 -108.99478 38081 ft 409 kts 276°
2026-05-07 06:15 30.21465 -109.05777 38077 ft 408 kts 276°
2026-05-07 06:15 30.23044 -109.12048 38073 ft 409 kts 276°
2026-05-07 06:16 30.24617 -109.18341 38079 ft 407 kts 276°
2026-05-07 06:16 30.26206 -109.24678 38101 ft 413 kts 276°
2026-05-07 06:17 30.27803 -109.31046 38089 ft 415 kts 276°
2026-05-07 06:17 30.29426 -109.37564 38069 ft 426 kts 276°
2026-05-07 06:18 30.31052 -109.44123 38046 ft 421 kts 276°
2026-05-07 06:18 30.32674 -109.50614 38063 ft 420 kts 276°
2026-05-07 06:19 30.34283 -109.57112 38068 ft 420 kts 276°
2026-05-07 06:19 30.35880 -109.63571 38091 ft 421 kts 276°
2026-05-07 06:20 30.37503 -109.70120 38082 ft 424 kts 276°
2026-05-07 06:20 30.39135 -109.76687 38079 ft 424 kts 276°
2026-05-07 06:21 30.40767 -109.83237 38076 ft 423 kts 276°
2026-05-07 06:21 30.42398 -109.89795 38045 ft 424 kts 276°
2026-05-07 06:22 30.44021 -109.96329 38086 ft 425 kts 276°
2026-05-07 06:22 30.46469 -110.06222 38091 ft 426 kts 277°
2026-05-07 06:23 30.48099 -110.12834 38087 ft 427 kts 277°
2026-05-07 06:23 30.49728 -110.19453 38082 ft 427 kts 277°
2026-05-07 06:24 30.51355 -110.26091 38091 ft 429 kts 277°
2026-05-07 06:24 30.52979 -110.32753 38075 ft 429 kts 277°
2026-05-07 06:25 30.54587 -110.39430 38087 ft 431 kts 277°
2026-05-07 06:25 30.56195 -110.46118 38084 ft 430 kts 277°
2026-05-07 06:26 30.57805 -110.52803 38090 ft 431 kts 277°
2026-05-07 06:26 30.59416 -110.59525 38070 ft 433 kts 277°
2026-05-07 06:27 30.60434 -110.63792 38070 ft 433 kts 277°
2026-05-07 06:27 30.62033 -110.70537 38064 ft 433 kts 277°
2026-05-07 06:28 30.63625 -110.77298 38066 ft 435 kts 277°
2026-05-07 06:28 30.64472 -110.80929 38073 ft 437 kts 277°
2026-05-07 06:29 30.66054 -110.87739 38061 ft 436 kts 277°
2026-05-07 06:29 30.67012 -110.91884 38054 ft 436 kts 277°
2026-05-07 06:30 30.67887 -110.95677 38056 ft 436 kts 277°
2026-05-07 06:30 30.69446 -111.02518 38068 ft 439 kts 277°
2026-05-07 06:31 30.71005 -111.09381 38026 ft 439 kts 277°
2026-05-07 06:31 30.72552 -111.16244 38050 ft 440 kts 277°
2026-05-07 06:32 30.74088 -111.23143 38044 ft 442 kts 277°
2026-05-07 06:32 30.75601 -111.30080 38051 ft 444 kts 277°
2026-05-07 06:33 30.77106 -111.37041 38044 ft 444 kts 277°
2026-05-07 06:33 30.78595 -111.44016 38040 ft 445 kts 277°
2026-05-07 06:34 30.80068 -111.51016 38040 ft 447 kts 277°
2026-05-07 06:34 30.81529 -111.58058 38044 ft 449 kts 277°
2026-05-07 06:35 30.82978 -111.65127 38039 ft 449 kts 277°
2026-05-07 06:35 30.84409 -111.72204 38041 ft 450 kts 277°
2026-05-07 06:36 30.85827 -111.79308 38039 ft 452 kts 277°
2026-05-07 06:36 30.87234 -111.86441 38039 ft 453 kts 277°
2026-05-07 06:37 30.88631 -111.93597 38030 ft 453 kts 277°
2026-05-07 06:37 30.90011 -112.00753 38037 ft 454 kts 277°
2026-05-07 06:38 30.91377 -112.07945 38039 ft 456 kts 277°
2026-05-07 06:38 30.92728 -112.15165 38035 ft 457 kts 277°
2026-05-07 06:39 30.94050 -112.22340 38047 ft 456 kts 277°
2026-05-07 06:39 30.95367 -112.29590 38052 ft 459 kts 277°
2026-05-07 06:40 30.96673 -112.36880 38044 ft 460 kts 277°
2026-05-07 06:40 30.97969 -112.44170 38047 ft 459 kts 278°
2026-05-07 06:41 30.99687 -112.51385 38049 ft 465 kts 284°
2026-05-07 06:41 31.02082 -112.58441 38057 ft 470 kts 290°
2026-05-07 06:42 31.04833 -112.65364 38049 ft 470 kts 291°
2026-05-07 06:42 31.07630 -112.72257 38057 ft 471 kts 291°
2026-05-07 06:43 31.10428 -112.79174 38057 ft 472 kts 291°
2026-05-07 06:43 31.13216 -112.86118 38054 ft 473 kts 291°
2026-05-07 06:44 31.15986 -112.93066 38056 ft 472 kts 291°
2026-05-07 06:44 31.18739 -113.00022 38054 ft 472 kts 291°
2026-05-07 06:45 31.21485 -113.07009 38050 ft 474 kts 291°
2026-05-07 06:45 31.23758 -113.12831 38046 ft 474 kts 291°
2026-05-07 06:46 31.26934 -113.21023 38048 ft 473 kts 291°
2026-05-07 06:46 31.29180 -113.26866 38038 ft 474 kts 291°
2026-05-07 06:47 31.31874 -113.33918 38041 ft 476 kts 291°
2026-05-07 06:47 31.34556 -113.40989 38046 ft 476 kts 292°
2026-05-07 06:48 31.37221 -113.48071 38051 ft 475 kts 292°
2026-05-07 06:48 31.39872 -113.55168 38047 ft 477 kts 292°
2026-05-07 06:49 31.42513 -113.62296 38047 ft 478 kts 292°
2026-05-07 06:49 31.45142 -113.69440 38043 ft 477 kts 292°
2026-05-07 06:50 31.47749 -113.76585 38039 ft 477 kts 292°
2026-05-07 06:50 31.50342 -113.83759 38038 ft 479 kts 292°
2026-05-07 06:51 31.52923 -113.90952 38030 ft 478 kts 292°
2026-05-07 06:51 31.55473 -113.98140 38019 ft 477 kts 292°
2026-05-07 06:52 31.57999 -114.05338 38016 ft 478 kts 292°
2026-05-07 06:52 31.60506 -114.12575 38006 ft 479 kts 292°
2026-05-07 06:53 31.62993 -114.19831 38005 ft 478 kts 292°
2026-05-07 06:53 31.65454 -114.27082 38011 ft 479 kts 292°
2026-05-07 06:54 31.67906 -114.34367 38019 ft 480 kts 292°
2026-05-07 06:54 31.70328 -114.41621 38027 ft 480 kts 292°
2026-05-07 06:55 31.72735 -114.48909 38033 ft 478 kts 292°
2026-05-07 06:55 31.75115 -114.56198 38036 ft 478 kts 292°
2026-05-07 06:56 31.77475 -114.63506 38047 ft 478 kts 292°
2026-05-07 06:56 31.79806 -114.70809 38044 ft 476 kts 292°
2026-05-07 06:57 31.82112 -114.78111 38056 ft 476 kts 292°
2026-05-07 06:57 31.84397 -114.85432 38055 ft 478 kts 292°
2026-05-07 06:58 31.86665 -114.92780 38053 ft 478 kts 292°
2026-05-07 06:58 31.88906 -115.00130 38058 ft 477 kts 292°
2026-05-07 06:59 31.91123 -115.07484 38055 ft 477 kts 292°
2026-05-07 06:59 31.93325 -115.14857 38058 ft 478 kts 292°
2026-05-07 07:00 31.95518 -115.22255 38059 ft 479 kts 292°
2026-05-07 07:00 31.97698 -115.29672 38064 ft 479 kts 292°
2026-05-07 07:01 31.99861 -115.37110 38071 ft 481 kts 292°
2026-05-07 07:01 32.02013 -115.44589 38088 ft 483 kts 292°
2026-05-07 07:02 32.04148 -115.52104 38110 ft 483 kts 292°
2026-05-07 07:02 32.06258 -115.59615 38125 ft 483 kts 292°
2026-05-07 07:03 32.08349 -115.67141 38137 ft 484 kts 292°
2026-05-07 07:03 32.10425 -115.74701 38147 ft 485 kts 292°
2026-05-07 07:04 32.12469 -115.82216 38155 ft 483 kts 292°
2026-05-07 07:04 32.14506 -115.89761 38162 ft 482 kts 292°
2026-05-07 07:05 32.16531 -115.97308 38170 ft 483 kts 292°
2026-05-07 07:05 32.18551 -116.04875 38183 ft 483 kts 292°
2026-05-07 07:06 32.20557 -116.12433 38197 ft 482 kts 292°
2026-05-07 07:06 32.22547 -116.19974 38189 ft 480 kts 292°
2026-05-07 07:07 32.23516 -116.23686 38166 ft 463 kts 292°
2026-05-07 07:07 32.24431 -116.27246 38117 ft 444 kts 292°
2026-05-07 07:07 32.25293 -116.30673 38005 ft 427 kts 292°
2026-05-07 07:07 32.26112 -116.33977 37884 ft 411 kts 292°
2026-05-07 07:08 32.26888 -116.37165 37722 ft 397 kts 292°
2026-05-07 07:08 32.27627 -116.40251 37485 ft 385 kts 292°
2026-05-07 07:08 32.28339 -116.43268 37119 ft 377 kts 292°
2026-05-07 07:08 32.29029 -116.46228 36676 ft 371 kts 292°
2026-05-07 07:09 32.29707 -116.49152 36116 ft 368 kts 292°
2026-05-07 07:09 32.30376 -116.52056 35565 ft 365 kts 292°
2026-05-07 07:09 32.30654 -116.55067 34885 ft 380 kts 266°
2026-05-07 07:09 32.29802 -116.58109 33895 ft 404 kts 239°
2026-05-07 07:10 32.27895 -116.60573 33089 ft 411 kts 212°
2026-05-07 07:10 32.25350 -116.61907 32809 ft 393 kts 185°
2026-05-07 07:10 32.22719 -116.61957 32570 ft 368 kts 160°
2026-05-07 07:10 32.20422 -116.60847 31769 ft 354 kts 133°
2026-05-07 07:11 32.18835 -116.58734 30845 ft 339 kts 105°
2026-05-07 07:11 32.18351 -116.56142 30312 ft 313 kts 76°
2026-05-07 07:11 32.19016 -116.53862 30003 ft 285 kts 47°
2026-05-07 07:11 32.20541 -116.52491 29447 ft 279 kts 17°
2026-05-07 07:12 32.22500 -116.52396 28528 ft 297 kts 346°
2026-05-07 07:12 32.24343 -116.53643 27776 ft 314 kts 326°
2026-05-07 07:12 32.25913 -116.55282 28079 ft 289 kts 324°
2026-05-07 07:12 32.27366 -116.56915 28229 ft 294 kts 323°
2026-05-07 07:13 32.28868 -116.58649 27620 ft 304 kts 322°
2026-05-07 07:13 32.30361 -116.60400 27167 ft 301 kts 322°
2026-05-07 07:13 32.31836 -116.62148 26685 ft 299 kts 322°
2026-05-07 07:13 32.33301 -116.63882 26217 ft 297 kts 321°
2026-05-07 07:14 32.34757 -116.65604 25751 ft 295 kts 321°
2026-05-07 07:14 32.36185 -116.67288 25309 ft 293 kts 321°
2026-05-07 07:14 32.37570 -116.69060 24861 ft 293 kts 317°
2026-05-07 07:14 32.38908 -116.70876 24423 ft 292 kts 317°
2026-05-07 07:15 32.40230 -116.72694 23976 ft 290 kts 317°
2026-05-07 07:15 32.41540 -116.74500 23511 ft 289 kts 317°
2026-05-07 07:15 32.42841 -116.76293 23016 ft 286 kts 316°
2026-05-07 07:15 32.44132 -116.78077 22526 ft 284 kts 316°
2026-05-07 07:16 32.45415 -116.79846 22050 ft 282 kts 317°
2026-05-07 07:16 32.46695 -116.81595 21591 ft 280 kts 319°
2026-05-07 07:16 32.48094 -116.83151 21132 ft 274 kts 326°
2026-05-07 07:16 32.49559 -116.84579 20674 ft 272 kts 327°
2026-05-07 07:17 32.51035 -116.85957 20220 ft 269 kts 329°
2026-05-07 07:17 32.52614 -116.87090 19790 ft 263 kts 338°
2026-05-07 07:17 32.54251 -116.88032 19352 ft 260 kts 344°
2026-05-07 07:17 32.55987 -116.88280 18822 ft 251 kts 12°
2026-05-07 07:18 32.57686 -116.87986 18456 ft 247 kts 11°
2026-05-07 07:18 32.59384 -116.87687 17950 ft 246 kts 12°
2026-05-07 07:18 32.61067 -116.87365 17481 ft 244 kts 12°
2026-05-07 07:18 32.62740 -116.87033 17031 ft 243 kts 12°
2026-05-07 07:19 32.64371 -116.86683 16595 ft 240 kts 18°
2026-05-07 07:19 32.65746 -116.85654 15991 ft 240 kts 57°
2026-05-07 07:19 32.66154 -116.83728 15331 ft 254 kts 96°
2026-05-07 07:19 32.65363 -116.81858 15001 ft 261 kts 134°
2026-05-07 07:20 32.63748 -116.80911 14742 ft 266 kts 170°
2026-05-07 07:20 32.61887 -116.81199 14102 ft 283 kts 206°
2026-05-07 07:20 32.60289 -116.82556 13833 ft 274 kts 219°
2026-05-07 07:20 32.58868 -116.83922 13510 ft 265 kts 215°
2026-05-07 07:21 32.57289 -116.85444 10916 ft 332 kts 233°
2026-05-07 07:21 32.57009 -116.88233 8516 ft 372 kts 302°
2026-05-07 07:21 32.58921 -116.90103 7798 ft 346 kts 336°
2026-05-07 07:21 32.60765 -116.91512 8651 ft 289 kts 319°
2026-05-07 07:22 32.62142 -116.93008 8461 ft 257 kts 337°
2026-05-07 07:22 32.63921 -116.93081 4239 ft 331 kts 14°
2026-05-07 07:22 32.66391 -116.92599 3568 ft 336 kts 355°
2026-05-07 07:22 32.68231 -116.93700 3767 ft 297 kts 299°
2026-05-07 07:23 32.68476 -116.96136 1822 ft 302 kts 269°
2026-05-07 07:23 32.68166 -116.97231 681 ft 106 kts
2026-05-07 07:23 32.68088 -116.97281 467 ft 2 kts 51°
2026-05-07 07:23 32.68087 -116.97283 465 ft 0 kts 49°
2026-05-07 07:25 32.73065 -117.17766 21 ft 0 kts 286°
2026-05-07 07:26 32.73075 -117.17804 24 ft 30 kts 286°
2026-05-07 07:26 32.73218 -117.18387 29 ft 103 kts 284°
2026-05-07 07:26 32.73380 -117.19057 26 ft 69 kts 285°
2026-05-07 07:26 32.73456 -117.19436 28 ft 18 kts 253°
2026-05-07 07:27 32.73426 -117.19500 27 ft 9 kts 231°
2026-05-07 07:27 32.73375 -117.19567 26 ft 9 kts 225°
2026-05-07 07:27 32.73327 -117.19605 28 ft 0 kts 198°